AXB201Q VOBL-VOHS

Flight info

Callsign AXB201Q
Flight time N/A
Altitude 34000
Route OPAMO7B OPAMO W56 BBI DCT APUSU W18 MELAX DCT JLG W79 UPMAV
Aircraft B738/M-SDE2E3FGHIRWXY/LB1

Departure

Time N/A
Airport Kempegowda International Airport Bengaluru (VOBL)

Arrival

Time 2026-05-04 05:55
Airport Rajiv Gandhi International Airport (VOHS)
Time Latitude Longitude Altitude Speed Heading
2026-05-04 05:41 16.90399 78.20251 9410 ft 313 kts 31°
2026-05-04 05:42 16.92225 78.21478 9318 ft 297 kts 31°
2026-05-04 05:42 16.93961 78.22643 9063 ft 290 kts 31°
2026-05-04 05:42 16.95651 78.23776 8709 ft 286 kts 31°
2026-05-04 05:42 16.97347 78.24913 8316 ft 284 kts 31°
2026-05-04 05:43 16.99020 78.26035 7974 ft 280 kts 31°
2026-05-04 05:43 17.00701 78.27165 7502 ft 281 kts 31°
2026-05-04 05:43 17.02371 78.28287 7073 ft 281 kts 31°
2026-05-04 05:45 17.13764 78.35963 4995 ft 264 kts 31°
2026-05-04 05:45 17.15098 78.37312 4983 ft 269 kts 56°
2026-05-04 05:47 17.15302 78.51210 4958 ft 263 kts 89°
2026-05-04 05:47 17.15273 78.53115 4959 ft 252 kts 89°
2026-05-04 05:47 17.15245 78.54925 4963 ft 240 kts 89°
2026-05-04 05:48 17.15215 78.56650 4987 ft 223 kts 89°
2026-05-04 05:48 17.15185 78.58209 4968 ft 201 kts 89°
2026-05-04 05:48 17.15149 78.59624 4940 ft 188 kts 90°
2026-05-04 05:48 17.15200 78.60994 4946 ft 179 kts 72°
2026-05-04 05:49 17.15822 78.62081 4959 ft 172 kts 37°
2026-05-04 05:49 17.16926 78.62559 4973 ft 169 kts
2026-05-04 05:49 17.18113 78.62592 4987 ft 172 kts
2026-05-04 05:49 17.19347 78.62616 4977 ft 177 kts
2026-05-04 05:51 17.23102 78.56748 4225 ft 185 kts 268°
2026-05-04 05:51 17.23060 78.55407 3968 ft 180 kts 270°
2026-05-04 05:52 17.23035 78.54140 3759 ft 158 kts 271°
2026-05-04 05:52 17.23021 78.53043 3436 ft 144 kts 273°
2026-05-04 05:52 17.23044 78.51983 3078 ft 147 kts 278°
2026-05-04 05:52 17.23222 78.50909 2779 ft 147 kts 292°
2026-05-04 05:53 17.23489 78.49905 2734 ft 139 kts 279°
2026-05-04 05:54 17.22884 78.43122 2013 ft 53 kts 269°
2026-05-04 05:55 17.22882 78.42805 2000 ft 39 kts 272°
2026-05-04 05:55 17.22949 78.42545 1989 ft 33 kts 299°
2026-05-04 05:55 17.23050 78.42356 1982 ft 27 kts 299°
2026-05-04 05:55 17.23130 78.42207 1976 ft 11 kts 343°